When you browse on this site, cookies collect data to enhance your experience and personalize the content and advertising you see.
Visit our Privacy Policy to learn more. By continuing to use the site, you agree to this use of cookies and data.
  • In Germany
  • List of Countries
  • For 7 days
  • Water Temperature
  • Weather Map
  • Weather Widgets
  • user-avatar
    Login

    Hourly Weather Elbasan

    Today, 10 December, Tuesday

    Time Temperature Precipitation Wind Pressure Humidity
    00:00 +11°C° 0.3 mm 1 mps 730 mmHg 79%
    01:00 +11°C° 0 mm 1 mps 730 mmHg 85%
    02:00 +11°C° 0.9 mm 1 mps 729 mmHg 87%
    03:00 +11°C° 0.9 mm 1 mps 729 mmHg 88%
    04:00 +10°C° 0.9 mm 1 mps 729 mmHg 90%
    05:00 +10°C° 2 mm 1 mps 729 mmHg 91%
    06:00 +10°C° 2 mm 1 mps 729 mmHg 92%
    07:00 +9°C° 0 mm 2 mps 729 mmHg 92%
    08:00 +9°C° 0.8 mm 2 mps 729 mmHg 92%
    09:00 +9°C° 0.8 mm 2 mps 729 mmHg 91%
    10:00 +10°C° 0.8 mm 2 mps 729 mmHg 90%
    11:00 +10°C° 0.6 mm 2 mps 729 mmHg 88%
    12:00 +10°C° 0.6 mm 2 mps 728 mmHg 87%
    13:00 +10°C° 0.6 mm 2 mps 728 mmHg 86%
    14:00 +10°C° 0.3 mm 2 mps 728 mmHg 86%
    15:00 +10°C° 0.3 mm 2 mps 728 mmHg 87%
    16:00 +10°C° 0.3 mm 2 mps 728 mmHg 87%
    17:00 +9°C° 0.2 mm 2 mps 728 mmHg 87%
    18:00 +9°C° 0.2 mm 2 mps 728 mmHg 87%
    19:00 +9°C° 0.2 mm 2 mps 728 mmHg 87%
    20:00 +9°C° 0.1 mm 2 mps 728 mmHg 87%
    21:00 +9°C° 0.1 mm 2 mps 728 mmHg 86%
    22:00 +9°C° 0.1 mm 2 mps 728 mmHg 86%
    23:00 +9°C° 0.2 mm 2 mps 728 mmHg 86%

    Tomorrow, 11 December, Wednesday

    Time Temperature Precipitation Wind Pressure Humidity
    00:00 +9°C° 0.2 mm 2 mps 728 mmHg 86%
    01:00 +9°C° 0.2 mm 2 mps 729 mmHg 86%
    02:00 +8°C° 0 mm 3 mps 728 mmHg 85%
    03:00 +8°C° 0 mm 3 mps 728 mmHg 85%
    04:00 +8°C° 0 mm 3 mps 728 mmHg 85%
    05:00 +8°C° 0.1 mm 3 mps 728 mmHg 85%
    06:00 +8°C° 0.1 mm 3 mps 728 mmHg 85%
    07:00 +8°C° 0.1 mm 3 mps 728 mmHg 84%
    08:00 +9°C° 0.1 mm 3 mps 729 mmHg 82%
    09:00 +9°C° 0.1 mm 3 mps 729 mmHg 79%
    10:00 +10°C° 0.1 mm 3 mps 729 mmHg 77%
    11:00 +10°C° 0 mm 3 mps 729 mmHg 74%
    12:00 +10°C° 0 mm 3 mps 729 mmHg 72%
    13:00 +11°C° 0 mm 3 mps 729 mmHg 69%
    14:00 +10°C° 0 mm 3 mps 729 mmHg 71%
    15:00 +9°C° 0 mm 2 mps 729 mmHg 74%
    16:00 +9°C° 0 mm 2 mps 728 mmHg 76%
    17:00 +8°C° 0 mm 2 mps 729 mmHg 78%
    18:00 +8°C° 0 mm 2 mps 729 mmHg 79%
    19:00 +7°C° 0 mm 2 mps 729 mmHg 81%
    20:00 +7°C° 0 mm 2 mps 729 mmHg 82%
    21:00 +7°C° 0 mm 2 mps 729 mmHg 82%
    22:00 +7°C° 0 mm 2 mps 729 mmHg 83%
    23:00 +6°C° 0 mm 2 mps 729 mmHg 83%

    Day after tomorrow, 12 December, Thursday

    Time Temperature Precipitation Wind Pressure Humidity
    00:00 +6°C° 0 mm 2 mps 728 mmHg 83%
    01:00 +6°C° 0 mm 2 mps 728 mmHg 84%
    02:00 +6°C° 0 mm 2 mps 728 mmHg 84%
    03:00 +6°C° 0 mm 2 mps 727 mmHg 83%
    04:00 +6°C° 0 mm 2 mps 727 mmHg 83%
    05:00 +6°C° 0 mm 2 mps 727 mmHg 83%
    06:00 +6°C° 0 mm 2 mps 727 mmHg 83%
    07:00 +7°C° 0 mm 1 mps 727 mmHg 83%
    08:00 +8°C° 0 mm 1 mps 728 mmHg 78%
    09:00 +10°C° 0 mm 1 mps 728 mmHg 74%
    10:00 +11°C° 0 mm 1 mps 728 mmHg 69%
    11:00 +12°C° 0 mm 1 mps 728 mmHg 67%
    12:00 +12°C° 0 mm 1 mps 727 mmHg 66%
    13:00 +13°C° 0 mm 1 mps 727 mmHg 64%
    14:00 +12°C° 0 mm 1 mps 727 mmHg 69%
    15:00 +11°C° 0 mm 1 mps 727 mmHg 75%
    16:00 +10°C° 0 mm 1 mps 727 mmHg 80%
    17:00 +10°C° 0 mm 1 mps 727 mmHg 81%
    18:00 +9°C° 0 mm 0 mps 727 mmHg 82%
    19:00 +9°C° 0 mm 0 mps 727 mmHg 83%
    20:00 +8°C° 0 mm 0 mps 727 mmHg 83%
    21:00 +9°C° 0 mm 1 mps 727 mmHg 83%
    22:00 +9°C° 0 mm 1 mps 727 mmHg 83%
    23:00 +9°C° 0.1 mm 1 mps 727 mmHg 84%

    13 December, Friday

    Time Temperature Precipitation Wind Pressure Humidity
    00:00 +9°C° 0.1 mm 1 mps 727 mmHg 85%
    01:00 +8°C° 0.1 mm 1 mps 727 mmHg 86%
    02:00 +8°C° 0 mm 1 mps 726 mmHg 85%
    03:00 +8°C° 0 mm 1 mps 726 mmHg 85%
    04:00 +8°C° 0 mm 1 mps 726 mmHg 84%
    05:00 +8°C° 0.6 mm 1 mps 726 mmHg 87%
    06:00 +8°C° 0.6 mm 1 mps 726 mmHg 89%
    07:00 +8°C° 0.6 mm 1 mps 726 mmHg 92%
    08:00 +8°C° 0.3 mm 1 mps 726 mmHg 90%
    09:00 +9°C° 0.3 mm 1 mps 726 mmHg 88%
    10:00 +8°C° 0.3 mm 2 mps 726 mmHg 86%
    11:00 +9°C° 0.3 mm 2 mps 725 mmHg 84%
    12:00 +9°C° 0.3 mm 2 mps 725 mmHg 82%
    13:00 +10°C° 0.3 mm 3 mps 725 mmHg 79%
    14:00 +9°C° 0.3 mm 2 mps 724 mmHg 80%
    15:00 +9°C° 0.3 mm 2 mps 724 mmHg 81%
    16:00 +9°C° 0.3 mm 1 mps 724 mmHg 82%
    17:00 +8°C° 0 mm 2 mps 723 mmHg 82%
    18:00 +8°C° 0 mm 2 mps 723 mmHg 82%
    19:00 +7°C° 0 mm 2 mps 723 mmHg 82%
    20:00 +7°C° 0 mm 3 mps 722 mmHg 81%
    21:00 +7°C° 0 mm 3 mps 721 mmHg 81%
    22:00 +7°C° 0 mm 3 mps 721 mmHg 80%
    23:00 +7°C° 0 mm 3 mps 720 mmHg 80%

    14 December, Saturday

    Time Temperature Precipitation Wind Pressure Humidity
    00:00 +7°C° 0 mm 3 mps 720 mmHg 80%
    01:00 +7°C° 0 mm 3 mps 719 mmHg 81%
    02:00 +6°C° 1.8 mm 4 mps 718 mmHg 84%
    03:00 +6°C° 1.8 mm 4 mps 718 mmHg 88%
    04:00 +7°C° 1.8 mm 4 mps 717 mmHg 91%
    05:00 +7°C° 2.7 mm 4 mps 717 mmHg 91%
    06:00 +7°C° 2.7 mm 5 mps 717 mmHg 90%
    07:00 +7°C° 2.7 mm 5 mps 718 mmHg 89%
    08:00 +8°C° 0.9 mm 4 mps 719 mmHg 87%
    09:00 +8°C° 0.9 mm 4 mps 720 mmHg 85%
    10:00 +10°C° 0.9 mm 3 mps 721 mmHg 83%
    11:00 +11°C° 0 mm 3 mps 721 mmHg 81%
    12:00 +12°C° 0 mm 2 mps 722 mmHg 78%
    13:00 +13°C° 0 mm 2 mps 723 mmHg 76%
    14:00 +12°C° 0 mm 2 mps 724 mmHg 78%
    15:00 +12°C° 0 mm 2 mps 725 mmHg 81%
    16:00 +10°C° 0 mm 2 mps 726 mmHg 84%
    17:00 +10°C° 0 mm 2 mps 727 mmHg 84%
    18:00 +10°C° 0 mm 1 mps 728 mmHg 84%
    19:00 +10°C° 0 mm 1 mps 729 mmHg 84%
    20:00 +10°C° 0 mm 1 mps 730 mmHg 84%
    21:00 +10°C° 0 mm 1 mps 731 mmHg 83%
    22:00 +10°C° 0 mm 1 mps 732 mmHg 82%
    23:00 +9°C° 0 mm 1 mps 732 mmHg 82%

    15 December, Sunday

    Time Temperature Precipitation Wind Pressure Humidity
    00:00 +9°C° 0 mm 1 mps 733 mmHg 82%
    01:00 +9°C° 0 mm 1 mps 733 mmHg 81%
    02:00 +9°C° 0 mm 1 mps 734 mmHg 81%
    03:00 +9°C° 0 mm 1 mps 734 mmHg 81%
    04:00 +9°C° 0 mm 1 mps 735 mmHg 81%
    05:00 +8°C° 0 mm 2 mps 735 mmHg 82%
    06:00 +8°C° 0 mm 2 mps 736 mmHg 82%
    07:00 +8°C° 0 mm 2 mps 736 mmHg 82%
    08:00 +10°C° 0 mm 2 mps 737 mmHg 79%
    09:00 +12°C° 0 mm 1 mps 737 mmHg 76%
    10:00 +14°C° 0 mm 1 mps 738 mmHg 72%
    11:00 +15°C° 0 mm 1 mps 738 mmHg 70%
    12:00 +16°C° 0 mm 1 mps 737 mmHg 67%
    13:00 +16°C° 0 mm 1 mps 737 mmHg 64%
    14:00 +14°C° 0 mm 0 mps 738 mmHg 70%
    15:00 +13°C° 0 mm 0 mps 738 mmHg 76%
    16:00 +12°C° 0 mm 0 mps 738 mmHg 82%
    17:00 +12°C° 0 mm 0 mps 738 mmHg 82%
    18:00 +11°C° 0 mm 0 mps 739 mmHg 82%
    19:00 +12°C° 0 mm 1 mps 739 mmHg 82%
    20:00 +12°C° 0 mm 1 mps 739 mmHg 81%
    21:00 +11°C° 0 mm 1 mps 740 mmHg 79%
    22:00 +11°C° 0 mm 1 mps 740 mmHg 78%
    23:00 +11°C° 0 mm 1 mps 740 mmHg 78%
    Show more